Location: Bennemühlen
(52.5740°N, 9.7135°E)
Time: 06:27:38
(UTC+00:00)

A-11 Canister half - All Passes

Search period start: 18 February 2026 00:00
Search period end: 28 February 2026 00:00
Orbit: 1512 x 1687 km, 47.2° (Epoch: 17 February)

Date Brightness Start Highest point End Pass type
(mag) Time Alt. Az. Time Alt. Az. Time Alt. Az.
18 Feb - 01:01:49 10° W 01:11:21 54° SSW 01:20:32 10° SE visible
18 Feb - 03:07:09 10° W 03:14:42 26° SW 03:22:03 10° S visible
18 Feb - 18:30:01 10° S 18:36:43 20° SE 18:43:21 10° E visible
18 Feb - 20:30:23 10° SW 20:39:51 47° SSE 20:49:06 10° E visible
18 Feb - 22:34:06 10° WSW 22:44:02 65° S 22:53:38 10° E visible
19 Feb - 00:38:44 10° W 00:48:21 55° SSW 00:57:35 10° SE visible
19 Feb - 02:43:59 10° W 02:51:46 28° SW 02:59:19 10° S visible
19 Feb - 18:07:25 10° S 18:13:47 19° SE 18:20:06 10° E visible
19 Feb - 20:07:26 10° SW 20:16:51 45° SSE 20:26:04 10° E visible
19 Feb - 22:11:03 10° WSW 22:20:59 65° S 22:30:38 10° E visible
20 Feb - 00:15:40 10° W 00:25:20 56° SSW 00:34:38 10° SE night (unlit)
20 Feb - 02:20:50 10° W 02:28:49 29° SW 02:36:35 10° SSE visible
20 Feb - 17:44:50 10° SSE 17:50:52 18° SE 17:56:50 10° E visible
20 Feb - 19:44:30 10° SW 19:53:50 44° SSE 20:03:00 10° E visible
20 Feb - 21:47:59 10° WSW 21:57:57 64° S 22:07:36 10° E visible
20 Feb - 23:52:35 10° W 00:02:18 58° SSW 00:11:41 10° ESE visible
21 Feb - 01:57:42 10° W 02:05:53 31° SW 02:13:49 10° SSE visible
21 Feb - 17:22:19 10° SSE 17:27:56 16° SE 17:33:31 10° E visible
21 Feb - 19:21:34 10° SW 19:30:50 42° SSE 19:39:57 10° E visible
21 Feb - 21:24:56 10° WSW 21:34:54 64° S 21:44:35 10° E visible
21 Feb - 23:29:31 10° W 23:39:17 59° SSW 23:48:43 10° ESE visible
22 Feb - 01:34:34 10° W 01:42:56 32° SW 01:51:01 10° SSE night (unlit)
22 Feb - 16:59:52 10° SSE 17:05:01 15° SE 17:10:09 10° E daylight
22 Feb - 18:58:39 10° SSW 19:07:50 41° SSE 19:16:54 10° E visible
22 Feb - 21:01:53 10° WSW 21:11:51 63° S 21:21:33 10° E visible
22 Feb - 23:06:27 10° W 23:16:16 60° SSW 23:25:45 10° ESE visible
23 Feb - 01:11:26 10° W 01:19:58 34° SW 01:28:14 10° SSE night (unlit)
23 Feb - 03:21:46 10° WSW 03:22:18 10° WSW 03:22:51 10° SW night (unlit)
23 Feb - 16:37:29 10° SSE 16:42:06 14° SE 16:46:43 10° E daylight
23 Feb - 18:35:45 10° SSW 18:44:50 39° SE 18:53:49 10° E visible
23 Feb - 20:38:50 10° WSW 20:48:48 63° S 20:58:32 10° E visible
23 Feb - 22:43:22 10° W 22:53:14 61° SSW 23:02:46 10° ESE visible
24 Feb - 00:48:19 10° W 00:57:00 36° SW 01:05:25 10° SSE night (unlit)
24 Feb - 02:56:52 10° WSW 02:59:26 11° WSW 03:01:58 10° SW night (unlit)
24 Feb - 16:15:12 10° SSE 16:19:12 13° ESE 16:23:10 10° E daylight
24 Feb - 18:12:51 10° SSW 18:21:50 38° SE 18:30:45 10° E visible
24 Feb - 20:15:49 10° WSW 20:25:46 62° SSE 20:35:30 10° E visible
24 Feb - 22:20:17 10° W 22:30:11 62° SSW 22:39:47 10° ESE visible
25 Feb - 00:25:13 10° W 00:34:02 37° SW 00:42:35 10° SSE visible
25 Feb - 02:33:01 10° WSW 02:36:33 12° WSW 02:40:03 10° SW night (unlit)
25 Feb - 15:53:08 10° SE 15:56:18 12° ESE 15:59:27 10° ESE daylight
25 Feb - 17:49:58 10° SSW 17:58:51 36° SE 18:07:40 10° E visible
25 Feb - 19:52:46 10° WSW 20:02:43 61° SSE 20:12:28 10° E visible
25 Feb - 21:57:12 10° W 22:07:09 63° S 22:16:47 10° ESE visible
26 Feb - 00:02:07 10° W 00:11:04 39° SW 00:19:44 10° SSE visible
26 Feb - 02:09:24 10° W 02:13:40 14° SW 02:17:53 10° SSW night (unlit)
26 Feb - 15:31:26 10° SE 15:33:24 11° ESE 15:35:21 10° ESE daylight
26 Feb - 17:27:07 10° SSW 17:35:52 35° SE 17:44:34 10° E visible
26 Feb - 19:29:45 10° WSW 19:39:41 60° SSE 19:49:26 10° E visible
26 Feb - 21:34:08 10° W 21:44:07 64° S 21:53:47 10° ESE visible
26 Feb - 23:39:00 10° W 23:48:04 41° SSW 23:56:53 10° SSE visible
27 Feb - 01:45:54 10° W 01:50:46 15° SW 01:55:35 10° SSW night (unlit)
27 Feb - 17:04:16 10° SSW 17:12:54 33° SE 17:21:28 10° E daylight
27 Feb - 19:06:44 10° WSW 19:16:38 59° SSE 19:26:23 10° E visible
27 Feb - 21:11:05 10° W 21:21:04 64° S 21:30:48 10° ESE visible
27 Feb - 23:15:54 10° W 23:25:05 42° SSW 23:34:00 10° SE visible
